Terminal Aerodrome Forecast
Issued by NWS

Home | Current Version | Previous Version | Graphics & Text | Print | Product List | Glossary On
Versions: 1 2 3 4 5 6 7 8 9 10 11 12 13 14 15 16 17
000
FTUS43 KABR 150500
TAFATY
TAF
KATY 150528Z 1506/1606 VRB03KT P6SM OVC060
      TEMPO 1506/1508 -RA OVC080
     FM152000 VRB06KT P6SM FEW250=

USA.gov is the U.S. government's official web portal to all federal, state and local government web resources and services.